Home > Weather > Victoria > Past weeks

Flag for USA Past Weather in Victoria, Texas, USA — Yesterday and Last 2 Weeks

Now
84 °F

Light rain. Partly sunny.


Feels Like: 92 °F
Forecast: 72 / 88 °F
Wind: 9 mph from Northeast

Location: Victoria Regional Airport

Current Time: Aug 28, 2016 at 3:59:20 PM

Latest Report: Aug 28, 2016 at 2:51 PM


Visibility: 10 mi

Pressure: 29.93 "Hg

Humidity: 74%

Dew Point: 75 °F

Location of VictoriaLocation

Past Weather in Victoria — Graph

°F

Victoria Temperature Yesterday

Maximum temperature yesterday: 91 °F (at 3:51 PM)
Minimum temperature yesterday: 71 °F (at 4:51 AM)
Average temperature yesterday: 80 °F

High & Low Weather Summary for the Past Weeks

 TemperatureHumidityPressure
High99 °F (Aug 13, 2:51 PM)100% (Aug 14, 6:51 AM)30.15 "Hg (Aug 14, 6:51 AM)
Low70 °F (Aug 28, 5:51 AM)38% (Aug 13, 2:51 PM)29.75 "Hg (Aug 13, 3:51 PM)
Average80 °F83%29.98 "Hg
* Reported Aug 13 1:03 PM — Aug 28 1:51 PM, Victoria, Weather by CustomWeather, © 2016

Note: Actual official high and low records may vary slightly from our data, if they occured in-between our weather recording intervals... More about our weather records

Advertising

Victoria Weather History for the Previous 24 Hours

Scroll right to see more
 ConditionsComfort  
Time TempWeatherWind HumidityBarometerVisibility
1:51 PM
Sun, Aug 28
88 °FPartly sunny.7 mph63%29.95 "Hg10 mi
12:51 PM84 °FCloudy.10 mph70%29.97 "Hg10 mi
11:51 AM84 °FPartly sunny.8 mph70%29.99 "Hg10 mi
11:01 AM83 °FBroken clouds.8 mph74%30.01 "Hg10 mi
10:51 AM81 °FPartly sunny.7 mph77%30.00 "Hg10 mi
10:03 AM81 °FPartly sunny.7 mph77%30.00 "Hg10 mi
9:51 AM81 °FScattered clouds.6 mph79%29.99 "Hg10 mi
8:51 AM76 °FSunny.6 mph91%29.98 "Hg10 mi
7:51 AM72 °FFog.5 mph93%29.98 "Hg6 mi
6:51 AM70 °FFog.5 mph97%29.96 "Hg6 mi
5:51 AM70 °FFog.6 mph100%29.94 "Hg6 mi
4:51 AM71 °FClear.3 mph96%29.93 "Hg7 mi
3:51 AM71 °FFog.5 mph100%29.94 "Hg6 mi
2:51 AM73 °FClear.6 mph97%29.95 "Hg7 mi
1:51 AM75 °FClear.No wind94%29.96 "Hg8 mi
12:51 AM76 °FClear.6 mph94%29.96 "Hg8 mi
11:51 PM
Sat, Aug 27
77 °FFog.7 mph94%29.96 "Hg6 mi
10:51 PM78 °FClear.3 mph90%29.96 "Hg7 mi
9:51 PM79 °FClear.3 mph88%29.95 "Hg9 mi
8:51 PM80 °FSunny.6 mph81%29.93 "Hg10 mi
7:51 PM83 °FSunny.6 mph77%29.91 "Hg10 mi
6:51 PM85 °FSunny.7 mph68%29.89 "Hg10 mi
5:51 PM89 °FSunny.10 mph61%29.88 "Hg10 mi
4:51 PM90 °FSunny.8 mph56%29.88 "Hg9 mi
3:51 PM91 °FSunny.10 mph52%29.89 "Hg10 mi
Weather by CustomWeather, © 2016

See weather overviewHow to use our weather pages